Lapse_Rate
6.5 6.5 6.5 6.5 6.5 6.5 6.5 6.5 6.5 6.5 6.5 6.5 6.5 6.5 6.5 6.7 6.9 7.1 7.3 7.5 7.6 7.6 7.1 7.2 7.6 7.0 7.5 7.5 7.1 7.4 7.4 7.9 7.4 7.2 7.3 7.7 7.5 7.6 7.8 7.8 7.9 7.9 7.9 7.5
6.5 6.5 6.5 6.5 6.5 6.5 6.5 6.5 6.5 6.5 6.5 6.5 6.6 6.9 6.7 6.8 7.0 7.0 7.2 7.5 7.7 8.0 8.2 7.8 8.0 7.8 7.5 7.2 7.1 7.3 7.6 7.3 7.9 7.6 7.6 7.6 7.7 7.7 7.6 7.4 7.6 7.9 7.7 7.8
6.5 6.5 6.5 6.5 6.5 6.5 6.5 6.5 6.5 6.5 6.5 6.5 6.5 6.5 6.6 6.8 7.0 7.1 7.3 7.6 7.7 7.7 7.8 7.8 7.1 7.3 7.8 7.6 7.3 7.2 7.0 7.4 8.0 7.8 7.7 7.4 7.7 7.9 7.7 7.4 7.4 7.2 7.6 7.7
6.5 6.5 6.5 6.5 6.5 6.5 6.5 6.5 6.5 6.5 6.5 6.5 6.5 6.9 7.1 7.4 7.3 7.3 7.6 7.6 7.8 7.9 8.1 8.1 7.3 4.8 4.4 5.2 7.6 7.5 7.2 7.2 7.5 7.9 7.7 7.9 7.8 7.9 7.6 7.6 7.4 7.4 7.3 7.5
6.5 6.5 6.5 6.5 6.5 6.5 6.5 6.5 6.5 6.5 6.5 6.5 6.9 7.0 6.8 7.7 7.7 7.5 7.6 7.9 8.0 7.8 6.8 5.9 4.1 2.9 3.1 4.0 5.6 6.6 7.3 7.1 7.2 7.5 7.7 7.8 7.6 7.5 7.5 7.5 7.4 7.3 7.5 7.3
6.5 6.5 6.5 6.5 6.5 6.7 6.5 6.5 6.5 6.5 6.5 6.5 6.7 6.5 6.5 7.6 7.8 7.8 8.0 7.6 7.8 7.4 5.4 3.2 1.8 2.1 3.7 6.0 4.4 3.4 2.7 4.2 6.8 7.0 6.9 7.3 7.2 6.9 6.9 7.4 7.2 7.2 6.4 3.3
6.5 6.5 6.5 6.5 6.5 6.8 6.5 6.5 6.7 6.8 6.8 6.7 6.5 6.7 7.1 7.6 7.7 8.0 8.1 7.8 8.0 7.8 5.4 2.7 2.0 2.5 3.2 3.4 1.9 2.0 3.2 4.7 1.8 3.7 6.6 6.6 6.5 6.3 6.0 6.2 1.8 -1.7 -3.3 -4.0
6.5 6.5 6.5 6.6 6.6 6.5 6.5 6.7 7.0 7.1 7.2 7.0 7.3 7.5 7.6 7.8 7.9 8.0 8.1 8.3 8.5 8.3 6.0 3.0 2.2 1.1 1.2 0.9 1.5 2.3 2.3 1.9 0.5 -1.2 -1.6 1.4 4.2 0.1 -0.2 -1.7 -3.0 -4.4 -4.6 -5.3
6.5 6.5 6.5 6.9 6.8 7.3 7.4 6.9 7.0 7.3 7.5 7.5 7.4 7.5 7.7 7.7 7.9 8.2 8.2 8.3 8.5 8.4 5.3 3.2 3.2 1.8 0.3 0.5 1.3 1.3 0.6 -0.5 -1.6 -2.2 -2.2 -2.1 -2.3 -2.8 -2.9 -3.1 -3.4 -4.0 -4.3 -5.1
6.5 6.5 6.5 6.7 7.4 7.6 7.7 7.4 7.7 7.9 7.8 7.8 7.5 7.7 7.8 7.9 8.0 8.1 8.3 8.3 8.3 8.0 5.3 4.6 3.6 2.8 1.4 -0.3 0.4 0.4 -0.4 -0.3 -0.9 -1.8 -3.2 -3.7 -2.9 -2.9 -3.3 -3.8 -4.0 -3.9 -4.3 -4.7
6.5 6.5 6.7 7.2 7.3 7.6 7.7 7.9 7.9 8.1 8.1 8.0 7.9 7.9 8.0 7.9 8.0 8.3 8.3 7.7 7.6 5.1 4.4 3.5 2.6 2.0 1.8 0.9 0.8 0.5 -0.1 -0.3 -0.6 -0.1 -0.1 -0.8 -2.1 -2.9 -2.8 -2.8 -2.0 -2.2 -2.2 -1.3
6.5 6.7 6.7 6.9 7.7 7.9 7.8 7.8 8.0 7.9 7.9 8.2 8.2 8.0 8.2 7.6 6.0 6.7 6.7 6.1 5.5 4.6 4.1 3.6 3.0 2.0 1.4 1.3 1.5 0.9 -0.2 -0.3 0.4 0.3 1.5 1.6 3.0 2.0 2.0 0.9 0.9 0.2 0.9 0.2
6.7 7.6 7.5 7.7 8.0 8.2 7.9 8.0 8.2 8.1 8.2 8.0 8.2 7.3 6.5 6.6 5.4 5.5 4.6 4.7 4.7 4.7 4.7 4.5 3.8 3.0 2.1 1.9 1.9 0.5 0.9 0.4 0.8 2.1 1.5 3.5 3.8 6.0 6.1 4.8 3.7 3.8 4.0 4.6
8.0 7.7 7.2 7.7 7.5 8.1 8.2 8.3 8.4 8.4 8.4 8.0 8.1 6.6 5.5 5.1 5.0 4.7 5.1 5.5 5.3 5.0 4.8 4.9 5.4 5.3 4.3 3.6 3.3 2.5 2.6 3.0 3.0 3.0 2.8 3.2 3.6 5.1 5.0 6.3 5.1 5.0 5.5 5.0
7.8 8.0 7.9 8.1 8.1 8.1 8.3 8.3 8.0 8.0 8.1 8.1 8.3 8.1 7.8 6.8 5.9 6.0 5.9 5.6 5.3 4.8 4.5 4.7 5.2 5.3 6.3 5.7 4.5 4.3 4.8 5.3 5.3 5.8 5.6 5.2 5.0 5.3 5.6 5.7 5.4 5.6 5.5 4.9
7.9 7.9 7.9 7.8 7.8 7.8 8.0 7.9 7.7 7.7 7.8 7.9 7.9 7.8 7.9 7.8 6.8 5.8 5.4 5.0 4.2 4.8 4.9 4.1 4.4 5.3 4.9 5.3 6.3 6.2 5.4 5.2 5.1 4.8 4.6 4.5 4.5 4.7 4.7 4.7 5.3 5.8 6.5 6.1
7.4 7.2 7.5 7.5 7.6 7.6 7.5 7.7 7.7 7.5 7.5 7.5 7.3 7.5 7.6 7.0 6.5 6.1 5.8 4.9 4.2 4.7 5.1 4.0 5.0 4.9 5.0 5.2 4.4 4.5 4.7 4.8 5.3 5.9 5.4 5.0 4.5 4.2 4.1 3.9 4.2 4.6 5.0 4.9
8.0 8.0 7.8 7.7 7.3 7.5 7.6 7.7 7.7 7.6 7.5 7.4 6.6 5.7 5.2 4.9 5.2 5.1 4.9 4.3 3.6 2.7 3.8 4.7 4.8 4.6 4.6 5.1 5.4 5.5 4.9 4.7 4.6 5.1 5.9 5.9 6.1 6.3 6.3 6.1 6.1 5.6 5.7 5.6
8.0 7.7 7.7 7.6 7.6 7.7 7.8 7.5 7.5 7.6 7.3 6.5 5.9 5.9 5.8 5.3 4.7 4.1 3.7 2.8 2.8 2.4 3.1 4.4 5.9 5.7 5.5 6.2 6.3 6.6 6.2 5.9 6.3 6.4 6.1 5.8 5.8 6.4 6.4 6.3 6.3 6.3 6.3 6.0
8.0 8.1 8.1 7.6 7.6 7.8 7.4 7.2 7.0 6.7 6.6 5.7 5.2 5.0 5.0 5.8 6.7 5.2 4.1 3.1 4.8 5.6 4.9 3.7 5.6 6.3 7.3 7.3 7.6 7.3 7.2 7.4 7.6 6.8 6.7 6.8 7.2 7.5 7.5 7.6 7.8 7.7 7.4 7.3
7.5 7.4 7.4 7.5 7.3 7.1 6.9 6.6 6.1 5.8 5.8 5.4 4.9 4.7 4.4 4.6 3.7 4.9 6.0 3.9 4.6 4.7 4.1 4.0 3.9 6.4 7.2 7.3 6.4 6.2 6.8 7.1 7.4 7.8 7.9 7.8 7.7 7.7 7.6 7.5 7.5 7.5 7.5 7.7
7.4 7.4 7.4 7.1 7.0 6.9 6.5 6.1 5.8 5.7 5.6 5.5 6.0 6.8 6.7 6.1 5.6 4.0 3.5 5.1 4.9 3.8 3.7 3.6 4.0 4.0 6.3 7.2 7.2 6.7 6.9 7.4 7.7 7.7 7.6 7.6 7.7 7.6 7.6 7.3 7.5 7.6 7.7 7.5
7.5 7.4 7.2 6.8 6.5 6.2 5.9 5.7 5.6 5.7 5.8 6.2 6.7 7.1 6.6 7.0 7.1 6.2 5.0 5.2 4.5 3.6 4.0 3.7 3.7 4.6 6.0 6.8 7.4 7.9 8.1 7.9 7.6 7.8 7.9 7.4 7.7 7.5 6.8 7.1 7.7 6.9 5.2 6.8
7.6 7.6 7.3 7.3 7.3 7.2 6.9 7.0 6.7 6.7 7.0 6.9 6.4 6.0 7.6 7.8 8.1 8.1 6.6 6.2 6.2 4.2 4.3 4.8 5.2 5.7 6.5 7.6 7.7 6.3 5.8 7.1 8.1 8.1 8.3 7.5 8.1 8.0 7.3 6.5 6.6 6.3 5.9 5.9
7.6 7.5 7.4 7.3 7.5 7.3 7.3 7.9 8.6 8.8 8.7 8.7 8.8 8.9 8.4 7.6 6.5 6.5 6.8 6.8 6.6 8.4 6.2 4.4 5.1 7.0 6.9 7.1 6.4 7.9 8.1 6.4 6.2 7.3 8.0 8.0 7.9 7.7 7.2 6.4 5.3 4.5 5.4 4.8
7.8 7.8 7.6 7.8 8.3 8.6 8.8 8.9 8.6 8.7 8.7 8.3 8.5 8.5 8.7 8.9 9.0 8.8 8.0 8.1 7.8 8.3 8.4 6.8 5.3 5.4 6.4 7.9 7.9 7.4 8.4 7.1 6.0 6.0 7.3 7.8 7.3 7.8 6.0 4.4 4.3 4.3 3.6 3.4
7.9 7.9 8.5 8.7 8.7 8.0 8.0 8.3 8.2 8.2 8.2 8.4 8.4 8.7 8.8 8.6 8.3 8.8 8.3 8.8 8.7 8.6 8.7 8.6 8.3 6.3 6.1 6.8 7.3 7.7 8.0 8.0 4.9 5.0 5.7 6.4 6.3 6.2 4.8 3.8 3.7 3.7 3.8 3.6
Wind_Speed
13 10 11 4 12 11 13 14 9 9 14 6 6 9 14 6 6 10 13 15 15 15 16 17 13 8 11 11 13 15 16 15 17 15 14 15 16 16 16 16 16 18 18 19
14 10 10 16 11 13 12 18 9 7 12 14 17 4 8 9 9 13 13 13 14 14 15 16 17 13 8 11 12 14 16 18 15 15 16 17 16 16 16 17 18 18 19 19
12 8 13 9 11 11 10 9 9 9 10 4 5 8 8 7 9 10 10 11 11 12 13 15 17 17 15 10 8 13 16 17 16 16 17 18 17 17 18 19 17 19 19 18
8 8 7 10 10 4 7 14 15 15 7 3 3 6 9 9 14 11 10 9 8 11 12 13 16 19 18 20 15 9 13 15 16 16 18 17 17 19 19 16 17 17 18 17
8 7 12 15 6 3 7 8 11 15 3 8 8 5 14 15 12 8 9 10 12 15 14 15 16 18 18 16 17 17 15 12 15 15 15 15 16 18 16 14 15 16 14 15
5 7 6 7 15 3 5 7 11 9 9 7 5 5 8 13 11 8 11 14 13 13 13 13 14 15 15 15 16 18 21 19 15 14 15 16 16 14 12 11 13 10 10 1
10 7 5 6 10 8 11 4 8 7 10 10 8 8 11 13 10 12 13 15 14 12 11 12 12 12 13 14 16 17 18 18 17 16 13 14 12 10 9 9 6 7 8 7
7 6 12 6 6 8 10 10 9 10 11 10 9 10 11 12 14 15 15 16 15 11 11 12 13 12 12 12 15 14 14 15 16 16 13 8 4 6 7 9 9 7 7 7
9 7 8 6 13 8 8 8 11 12 13 12 11 10 12 12 14 14 16 14 14 12 13 12 14 14 13 13 12 11 12 14 14 14 14 12 9 7 5 6 6 6 6 7
2 6 5 10 15 11 11 12 14 12 11 11 10 12 12 12 14 13 14 14 14 13 13 13 13 13 13 13 11 9 10 11 11 13 13 14 9 7 6 5 6 4 6 7
5 10 5 13 12 8 15 14 13 12 12 12 12 12 14 14 14 13 13 14 13 13 12 14 14 14 14 13 11 9 9 9 10 10 12 11 14 10 7 7 6 7 7 7
2 8 10 10 9 14 14 12 11 11 10 11 13 11 11 10 11 11 12 12 12 13 13 13 14 13 14 13 11 8 9 8 9 9 8 9 9 13 28 25 28 26 20 16
5 10 9 14 15 14 11 12 13 13 13 11 12 10 11 9 10 12 12 13 13 13 13 11 11 13 13 12 11 13 10 9 8 8 9 8 8 9 12 20 33 32 30 26
13 14 7 15 8 11 11 11 11 12 12 11 10 11 11 10 11 12 13 12 13 13 13 13 12 12 12 12 11 13 12 14 9 8 9 8 10 7 10 9 14 14 22 20
13 9 7 7 9 13 12 12 10 11 10 10 11 11 11 12 12 13 12 11 12 13 14 14 15 16 12 10 14 13 10 9 9 8 8 9 9 8 9 9 11 10 10 14
12 11 10 10 11 11 11 10 9 9 9 9 10 11 12 12 13 13 13 13 14 14 14 15 15 13 14 13 12 11 12 15 12 9 9 9 9 8 9 11 10 9 8 9
9 10 9 9 8 9 9 8 9 9 9 9 10 9 10 10 10 12 12 13 14 13 13 14 13 13 12 11 13 10 9 9 13 9 9 9 8 9 9 10 10 9 10 12
8 8 8 8 8 8 10 10 10 10 10 11 10 10 10 11 11 11 11 10 11 13 14 13 13 13 14 13 12 9 9 9 10 10 9 9 9 9 8 9 9 9 9 10
11 11 11 11 11 11 10 11 11 10 10 9 10 10 10 10 11 11 11 12 13 14 14 13 15 13 13 14 11 8 9 10 9 9 9 10 9 9 8 9 9 9 8 7
12 11 13 13 13 12 11 10 10 10 10 10 10 10 11 11 8 9 11 14 12 9 10 14 12 12 11 12 12 8 9 9 9 8 8 8 8 8 8 10 8 8 7 7
10 11 10 10 11 10 10 9 9 11 10 9 10 9 9 9 12 10 9 9 11 10 11 12 11 8 8 9 10 9 9 8 8 8 8 7 7 8 8 7 7 7 7 6
9 9 9 9 10 11 10 10 10 10 10 10 10 6 6 7 9 10 11 9 7 11 8 8 9 11 9 10 8 9 9 9 8 7 7 7 7 7 7 6 6 6 5 5
9 10 10 9 10 11 10 10 9 9 9 9 7 7 8 7 6 6 7 9 8 10 8 7 10 12 9 8 8 8 7 7 7 7 6 6 6 5 5 5 5 5 4 5
9 9 9 8 8 8 10 8 9 8 7 8 8 9 7 5 6 6 6 6 6 8 6 5 7 9 8 6 6 6 7 8 6 5 5 5 4 4 4 4 5 5 3 3
7 7 7 7 7 6 7 7 7 7 7 8 8 8 8 7 5 5 4 4 6 6 6 7 9 5 5 5 6 6 5 5 4 5 4 4 3 3 4 4 3 2 2 3
6 5 5 7 5 3 3 3 4 4 4 5 5 5 5 4 4 4 4 3 4 5 5 4 5 6 6 5 5 5 5 5 5 5 4 3 3 3 3 3 3 3 3 4
5 3 4 4 4 5 5 5 4 5 5 4 4 4 4 4 3 4 4 4 4 4 4 4 3 4 3 4 5 4 4 3 3 2 3 3 3 3 3 3 5 6 6 5
Wind_Direction
308 322 305 176 300 241 211 234 221 226 224 288 297 266 258 39 32 27 16 13 9 360 349 352 357 195 197 201 194 198 210 219 216 210 214 215 214 212 212 211 209 212 210 211
287 307 292 283 229 260 189 222 253 260 259 231 232 224 81 39 23 37 20 6 7 4 354 351 341 346 304 199 203 196 209 219 217 211 211 217 217 214 213 216 215 214 213 212
269 277 291 283 267 267 275 277 282 284 287 84 348 344 29 21 65 45 20 7 356 3 3 355 344 337 332 337 274 204 208 219 219 216 215 217 216 215 217 215 212 218 218 218
271 281 252 252 242 249 249 241 251 243 264 255 350 25 356 12 55 39 3 358 359 20 8 2 1 356 345 343 325 305 225 218 216 219 221 221 215 219 220 216 215 216 220 220
236 233 264 284 165 275 251 257 236 248 164 54 46 335 36 30 30 34 357 11 35 35 24 15 3 346 339 334 331 324 316 239 223 219 226 226 223 222 222 218 218 220 219 221
253 237 248 257 270 43 317 237 52 76 62 43 27 6 31 357 352 9 30 50 32 32 24 17 360 348 342 348 358 357 344 335 315 214 218 222 222 220 217 218 219 214 214 260
232 248 270 287 29 340 220 100 73 39 45 40 32 12 336 343 338 42 35 49 34 29 24 10 1 359 4 355 353 336 331 336 353 338 221 220 215 208 195 199 119 100 90 48
230 245 246 259 150 253 79 25 66 28 39 33 14 356 352 340 6 35 25 24 21 20 20 9 2 0 7 4 342 344 351 357 358 356 353 354 158 69 72 107 114 103 95 82
194 207 251 110 104 95 76 81 62 46 30 17 13 2 9 359 25 21 29 24 15 8 6 9 4 4 358 347 347 2 15 17 11 7 1 358 21 70 82 99 128 131 120 115
327 263 347 57 44 69 67 58 56 47 35 30 11 11 14 16 23 18 21 15 16 8 7 10 1 3 354 343 344 9 41 34 28 26 21 10 14 18 50 71 87 83 97 105
186 270 16 52 55 24 59 50 49 39 35 26 18 17 5 28 24 15 17 16 16 11 10 3 1 2 354 351 350 24 34 40 51 40 35 35 39 29 38 31 81 100 92 94
55 41 95 103 60 33 53 41 31 27 35 32 33 26 17 38 26 25 26 21 21 19 14 7 2 4 0 3 8 31 49 42 38 55 41 50 42 60 54 65 68 77 74 95
37 357 54 97 65 36 34 33 29 44 41 36 39 32 38 43 32 40 38 33 30 28 22 13 7 9 6 9 25 44 41 50 62 48 65 43 58 57 67 69 71 70 74 72
15 354 66 43 25 26 29 31 53 56 53 44 46 46 49 51 47 46 43 40 41 36 25 17 13 21 9 21 35 49 53 49 57 60 59 74 62 51 74 60 77 76 63 73
5 5 54 31 38 31 25 18 51 47 43 48 51 57 61 63 61 56 49 47 48 43 35 25 22 15 9 24 41 46 51 54 63 65 66 69 76 71 73 76 72 74 75 65
336 44 33 44 54 46 35 32 54 53 60 62 68 68 71 73 70 63 51 45 49 41 31 35 23 15 17 19 34 46 50 47 54 57 60 61 66 71 72 70 63 57 62 65
5 13 11 19 49 59 60 56 61 72 74 71 70 77 84 78 67 61 56 46 45 41 32 38 26 11 26 29 37 41 46 42 43 59 58 57 60 60 63 66 67 66 62 59
38 46 32 35 47 76 73 69 70 75 77 74 72 67 64 62 56 54 53 48 46 40 28 31 27 28 29 34 40 49 51 51 49 50 53 56 57 60 62 68 70 71 69 61
44 52 54 55 63 75 77 74 74 77 79 82 80 77 76 73 66 59 54 52 46 38 18 11 29 31 30 34 41 49 55 54 55 60 60 59 60 61 66 69 69 67 69 67
58 63 65 67 67 76 79 73 73 69 65 68 67 63 53 42 66 76 65 55 45 40 34 20 23 33 28 28 34 45 45 49 58 60 52 55 56 58 60 58 61 63 65 67
74 73 74 77 80 77 76 77 81 79 77 76 79 75 72 62 50 31 58 56 34 31 36 36 33 26 31 32 39 40 40 44 45 47 50 53 56 54 56 59 59 57 55 54
86 86 83 82 81 76 71 72 70 68 64 58 51 68 91 95 91 66 43 46 36 31 38 35 25 14 22 37 42 43 44 40 42 44 43 44 46 48 49 47 47 50 47 49
89 90 88 86 88 88 82 76 71 68 64 56 60 75 74 64 50 55 54 42 46 26 45 31 13 14 29 36 36 40 49 52 49 43 48 47 45 56 47 30 48 52 41 17
100 101 103 108 112 104 98 102 102 100 97 78 56 40 41 90 75 73 65 40 85 90 52 32 18 18 35 35 51 56 34 21 38 40 51 44 41 53 65 35 37 33 27 27
101 111 117 117 107 106 119 128 118 105 88 74 67 70 71 62 72 57 52 76 34 41 76 24 10 37 40 46 33 26 60 62 19 19 28 42 29 49 40 34 51 24 356 36
84 79 72 60 71 89 83 77 85 77 106 100 79 71 65 58 61 74 89 64 58 49 46 76 50 15 20 24 30 22 21 66 23 9 351 30 8 36 53 28 4 16 29 37
112 119 123 95 61 40 33 36 68 77 65 76 81 68 75 88 72 66 55 33 48 25 33 32 57 76 360 354 21 10 11 32 68 9 331 7 4 15 42 26 11 358 348 357